• In Uzbekistan
  • List of Countries
  • For 7 days
  • Water Temperature
  • Weather Map
  • Weather Widgets
  • user-avatar
    Login

    Hourly Weather Belgorod-Dnistrovsky

    Today, 23 January, Thursday

    Time Temperature Precipitation Wind Pressure Humidity
    00:00 0°C° 0 mm 10 mps 757 mmHg 65%
    01:00 0°C° 0 mm 10 mps 757 mmHg 67%
    02:00 -2°C° 0 mm 10 mps 757 mmHg 69%
    03:00 -2°C° 0 mm 10 mps 758 mmHg 68%
    04:00 -2°C° 0 mm 10 mps 758 mmHg 68%
    05:00 -2°C° 0 mm 10 mps 758 mmHg 67%
    06:00 -2°C° 0 mm 10 mps 759 mmHg 70%
    07:00 -3°C° 0 mm 9 mps 760 mmHg 72%
    08:00 -3°C° 0 mm 9 mps 761 mmHg 74%
    09:00 -1°C° 0 mm 9 mps 761 mmHg 69%
    10:00 -2°C° 0 mm 10 mps 762 mmHg 63%
    11:00 0°C° 0 mm 10 mps 763 mmHg 57%
    12:00 0°C° 0 mm 10 mps 763 mmHg 55%
    13:00 0°C° 0 mm 10 mps 763 mmHg 54%
    14:00 +1°C° 0 mm 10 mps 763 mmHg 52%
    15:00 0°C° 0 mm 9 mps 763 mmHg 51%
    16:00 0°C° 0 mm 8 mps 764 mmHg 51%
    17:00 0°C° 0 mm 7 mps 764 mmHg 50%
    18:00 -1°C° 0 mm 7 mps 765 mmHg 55%
    19:00 -1°C° 0 mm 7 mps 765 mmHg 60%
    20:00 -2°C° 0 mm 7 mps 766 mmHg 65%
    21:00 -2°C° 0 mm 7 mps 766 mmHg 68%
    22:00 -3°C° 0 mm 6 mps 766 mmHg 72%
    23:00 -3°C° 0 mm 6 mps 766 mmHg 75%

    Tomorrow, 24 January, Friday

    Time Temperature Precipitation Wind Pressure Humidity
    00:00 -4°C° 0 mm 5 mps 767 mmHg 78%
    01:00 -4°C° 0 mm 5 mps 767 mmHg 80%
    02:00 -4°C° 0 mm 5 mps 767 mmHg 82%
    03:00 -3°C° 0 mm 4 mps 766 mmHg 83%
    04:00 -4°C° 0 mm 4 mps 766 mmHg 84%
    05:00 -4°C° 0 mm 4 mps 766 mmHg 85%
    06:00 -4°C° 0 mm 4 mps 766 mmHg 84%
    07:00 -4°C° 0 mm 4 mps 766 mmHg 83%
    08:00 -4°C° 0 mm 3 mps 767 mmHg 82%
    09:00 -2°C° 0 mm 4 mps 766 mmHg 72%
    10:00 0°C° 0 mm 4 mps 766 mmHg 62%
    11:00 +1°C° 0 mm 5 mps 766 mmHg 52%
    12:00 +2°C° 0 mm 5 mps 766 mmHg 49%
    13:00 +3°C° 0 mm 5 mps 765 mmHg 46%
    14:00 +3°C° 0 mm 5 mps 765 mmHg 43%
    15:00 +2°C° 0 mm 5 mps 764 mmHg 47%
    16:00 +3°C° 0 mm 4 mps 764 mmHg 51%
    17:00 +1°C° 0 mm 4 mps 763 mmHg 55%
    18:00 +1°C° 0 mm 4 mps 763 mmHg 56%
    19:00 0°C° 0 mm 4 mps 763 mmHg 58%
    20:00 0°C° 0 mm 5 mps 763 mmHg 60%
    21:00 0°C° 0 mm 5 mps 763 mmHg 60%
    22:00 -1°C° 0 mm 5 mps 762 mmHg 60%
    23:00 -1°C° 0 mm 5 mps 762 mmHg 59%

    Day after tomorrow, 25 January, Saturday

    Time Temperature Precipitation Wind Pressure Humidity
    00:00 -1°C° 0 mm 5 mps 761 mmHg 60%
    01:00 -1°C° 0 mm 5 mps 761 mmHg 60%
    02:00 -1°C° 0 mm 4 mps 761 mmHg 61%
    03:00 -2°C° 0 mm 4 mps 760 mmHg 62%
    04:00 -2°C° 0 mm 4 mps 760 mmHg 64%
    05:00 -3°C° 0 mm 4 mps 760 mmHg 66%
    06:00 -3°C° 0 mm 4 mps 760 mmHg 68%
    07:00 -3°C° 0 mm 4 mps 760 mmHg 71%
    08:00 -4°C° 0 mm 4 mps 760 mmHg 73%
    09:00 -1°C° 0 mm 3 mps 760 mmHg 65%
    10:00 +1°C° 0 mm 3 mps 760 mmHg 57%
    11:00 +2°C° 0 mm 3 mps 760 mmHg 48%
    12:00 +3°C° 0 mm 3 mps 760 mmHg 44%
    13:00 +4°C° 0 mm 3 mps 760 mmHg 40%
    14:00 +5°C° 0 mm 4 mps 759 mmHg 36%
    15:00 +5°C° 0 mm 3 mps 759 mmHg 39%
    16:00 +4°C° 0 mm 3 mps 759 mmHg 43%
    17:00 +3°C° 0 mm 3 mps 759 mmHg 46%
    18:00 +2°C° 0 mm 3 mps 760 mmHg 49%
    19:00 0°C° 0 mm 4 mps 760 mmHg 51%
    20:00 0°C° 0 mm 4 mps 761 mmHg 53%
    21:00 0°C° 0 mm 4 mps 761 mmHg 54%
    22:00 -1°C° 0 mm 4 mps 761 mmHg 55%
    23:00 -1°C° 0 mm 4 mps 761 mmHg 57%

    26 January, Sunday

    Time Temperature Precipitation Wind Pressure Humidity
    00:00 -1°C° 0 mm 4 mps 761 mmHg 58%
    01:00 0°C° 0 mm 3 mps 761 mmHg 58%
    02:00 0°C° 0 mm 3 mps 761 mmHg 59%
    03:00 -1°C° 0 mm 3 mps 761 mmHg 60%
    04:00 -1°C° 0 mm 3 mps 761 mmHg 61%
    05:00 -1°C° 0 mm 3 mps 762 mmHg 62%
    06:00 -1°C° 0 mm 3 mps 762 mmHg 63%
    07:00 -1°C° 0 mm 2 mps 762 mmHg 64%
    08:00 -1°C° 0 mm 2 mps 763 mmHg 65%
    09:00 +1°C° 0 mm 2 mps 763 mmHg 62%
    10:00 +3°C° 0 mm 2 mps 763 mmHg 59%
    11:00 +4°C° 0 mm 2 mps 764 mmHg 57%
    12:00 +6°C° 0 mm 1 mps 764 mmHg 56%
    13:00 +7°C° 0 mm 1 mps 763 mmHg 55%
    14:00 +8°C° 0 mm 1 mps 763 mmHg 54%
    15:00 +7°C° 0 mm 1 mps 763 mmHg 58%
    16:00 +6°C° 0 mm 1 mps 763 mmHg 63%
    17:00 +5°C° 0 mm 1 mps 764 mmHg 67%
    18:00 +5°C° 0 mm 1 mps 764 mmHg 70%
    19:00 +4°C° 0 mm 1 mps 764 mmHg 72%
    20:00 +4°C° 0 mm 1 mps 764 mmHg 75%
    21:00 +3°C° 0 mm 2 mps 764 mmHg 78%
    22:00 +3°C° 0 mm 2 mps 764 mmHg 80%
    23:00 +2°C° 0 mm 2 mps 765 mmHg 83%

    27 January, Monday

    Time Temperature Precipitation Wind Pressure Humidity
    00:00 +2°C° 0 mm 2 mps 764 mmHg 85%
    01:00 +2°C° 0 mm 2 mps 764 mmHg 87%
    02:00 +2°C° 0 mm 2 mps 764 mmHg 89%
    03:00 +2°C° 0 mm 3 mps 764 mmHg 89%
    04:00 +2°C° 0 mm 3 mps 764 mmHg 90%
    05:00 +2°C° 0 mm 3 mps 764 mmHg 91%
    06:00 +2°C° 0 mm 3 mps 764 mmHg 91%
    07:00 +2°C° 0 mm 3 mps 764 mmHg 91%
    08:00 +3°C° 0 mm 3 mps 764 mmHg 91%
    09:00 +4°C° 0 mm 4 mps 764 mmHg 86%
    10:00 +5°C° 0 mm 4 mps 764 mmHg 80%
    11:00 +7°C° 0 mm 5 mps 764 mmHg 75%
    12:00 +7°C° 0 mm 5 mps 763 mmHg 74%
    13:00 +7°C° 0 mm 4 mps 763 mmHg 73%
    14:00 +7°C° 0 mm 4 mps 762 mmHg 72%
    15:00 +7°C° 0 mm 4 mps 762 mmHg 77%
    16:00 +6°C° 0 mm 4 mps 762 mmHg 82%
    17:00 +5°C° 0 mm 4 mps 761 mmHg 87%
    18:00 +5°C° 0 mm 3 mps 761 mmHg 89%
    19:00 +4°C° 0 mm 3 mps 761 mmHg 91%
    20:00 +4°C° 0 mm 3 mps 761 mmHg 93%
    21:00 +4°C° 0 mm 3 mps 761 mmHg 93%
    22:00 +4°C° 0 mm 3 mps 761 mmHg 93%
    23:00 +5°C° 0 mm 2 mps 761 mmHg 93%

    28 January, Tuesday

    Time Temperature Precipitation Wind Pressure Humidity
    00:00 +5°C° 0 mm 2 mps 761 mmHg 92%
    01:00 +5°C° 0 mm 2 mps 761 mmHg 92%
    02:00 +5°C° 0 mm 1 mps 760 mmHg 91%
    03:00 +5°C° 0 mm 1 mps 760 mmHg 90%
    04:00 +5°C° 0 mm 1 mps 760 mmHg 90%
    05:00 +4°C° 0 mm 1 mps 760 mmHg 89%
    06:00 +4°C° 0 mm 1 mps 760 mmHg 89%
    07:00 +4°C° 0 mm 1 mps 761 mmHg 89%
    08:00 +4°C° 0 mm 1 mps 761 mmHg 88%
    09:00 +5°C° 0 mm 1 mps 761 mmHg 82%
    10:00 +6°C° 0 mm 0 mps 761 mmHg 76%
    11:00 +7°C° 0 mm 0 mps 761 mmHg 69%
    12:00 +8°C° 0 mm 0 mps 761 mmHg 66%
    13:00 +9°C° 0 mm 0 mps 760 mmHg 63%
    14:00 +11°C° 0 mm 1 mps 760 mmHg 60%
    15:00 +10°C° 0 mm 1 mps 760 mmHg 65%
    16:00 +9°C° 0 mm 1 mps 760 mmHg 70%
    17:00 +7°C° 0 mm 2 mps 760 mmHg 74%
    18:00 +7°C° 0 mm 2 mps 760 mmHg 80%
    19:00 +5°C° 0 mm 3 mps 760 mmHg 85%
    20:00 +5°C° 0 mm 3 mps 760 mmHg 90%
    21:00 +5°C° 0 mm 3 mps 760 mmHg 92%
    22:00 +5°C° 0 mm 3 mps 760 mmHg 93%
    23:00 +4°C° 0 mm 3 mps 760 mmHg 94%
    Show more